User: anonymous   Login
Location: Erba
(45.8000°N, 9.2500°E)
Time: 11:57:24
(UTC+01:00)
Language:

ISS - Orbit

View from above orbital plane
View from above orbital plane
View from above satellite
View from above satellite

Ground track
Ground track

The orbit data is extracted from the following two-line orbital elements,

1 25544U 98067A   19017.22841008  .00016717  00000-0  10270-3 0  9033
2 25544  51.6423  32.0688 0002536 292.9444  67.1441 15.53751354 31792
Epoch (UTC): 17 January 2019 05:28:54
Eccentricity: 0.0002536
inclination: 51.6423°
perigee height: 404 km
apogee height: 407 km
right ascension of ascending node: 32.0688°
argument of perigee: 292.9444°
revolutions per day: 15.53751354
mean anomaly at epoch: 67.1441°
orbit number at epoch: 3179

The dashed part of the orbit path shows where the satellite is in the earth's shadow,  

DLR